Location: B?ogocice
(50.2413°N, 20.2361°E)
Time: 00:33:22
(UTC+00:00)

CZ-2C R/B - Pass Details

Date: 15 June 2024
Orbit: 702 x 905 km, 98.2° (Epoch: 18 July)

Event Time Altitude Azimuth Distance (km) Brightness Sun altitude
Rises 00:07:02 0° 20° (NNE) 3,443 8.4 -13.9°
Reaches altitude 10° 00:09:42 10° 29° (NNE) 2,472 7.1 -13.8°
Maximum altitude 00:14:40 34° 94° (E) 1,306 4.4 -13.5°
Drops below altitude 10° 00:19:21 10° 159° (SSE) 2,333 5.1 -13.2°
Enters shadow 00:19:34 - 160° (SSE) 2,408 5.1 -13.2°
